Location: Sebastopol
(38.4021°N, 122.8239°W)
Time: 15:02:31
(UTC+00:00)

SAR-Lupe-4 - Pass Details

Date: 29 October 2020
Orbit: 481 x 484 km, 98.2° (Epoch: 25 November)

Event Time Altitude Azimuth Distance (km) Brightness Sun altitude
Rises 13:30:22 0° 178° (S) 2,532 7.3 -13.2°
Reaches altitude 10° 13:32:28 10° 184° (S) 1,656 6.3 -12.8°
Maximum altitude 13:35:55 48° 259° (W) 641 3.7 -12.2°
Drops below altitude 10° 13:39:24 10° 335° (NNW) 1,668 6.0 -11.5°
Sets 13:41:31 0° 341° (NNW) 2,552 7.0 -11.1°
